Location: Gull Harbor
(47.1000°N, 122.9000°W)
Time: 09:49:26
(UTC-08:00)

Tiangong 1 - Visible Passes

Search period start: 17 January 2018 00:00
Search period end: 27 January 2018 00:00
Orbit: 264 x 288 km, 42.8° (Epoch: 17 January)

Date Brightness Start Highest point End Pass type
(mag) Time Alt. Az. Time Alt. Az. Time Alt. Az.
17 Jan 2.2 17:58:46 10° SW 18:00:53 25° S 18:02:22 15° ESE visible
18 Jan 2.0 17:58:26 10° WSW 18:00:39 28° S 18:02:17 14° ESE visible
19 Jan 2.1 17:58:02 10° WSW 18:00:16 29° S 18:02:06 13° ESE visible
20 Jan 2.3 17:57:34 10° WSW 17:59:45 27° S 18:01:52 10° SE visible
21 Jan 2.6 17:57:01 10° WSW 17:59:04 23° SSW 18:01:07 10° SE visible
22 Jan 3.0 17:56:25 10° WSW 17:58:15 18° SSW 18:00:03 10° SSE visible
23 Jan 3.4 17:55:53 10° SW 17:57:14 14° SSW 17:58:36 10° SSE visible
